Location: Suzhou
(31.3110°N, 120.6180°E)
Time: 13:42:09
(UTC+08:00)

FO-29 - Pass Details

Date: 24 April 2026
Orbit: 800 x 1320 km, 98.5° (Epoch: 15 May)

Event Time Altitude Azimuth Distance (km) Brightness Sun altitude
Rises 20:15:12 0° 9° (N) 4,077 13.0 -21.1°
Reaches altitude 10° 20:17:58 10° 8° (N) 3,042 12.4 -21.6°
Maximum altitude 20:24:48 70° 286° (WNW) 1,102 9.9 -22.8°
Drops below altitude 10° 20:30:46 10° 203° (SSW) 2,669 11.7 -23.9°
Sets 20:33:04 0° 201° (SSW) 3,547 12.3 -24.3°
